User: anonymous   Login
Location: Oshawa
(43.9000°N, 78.8670°W)
Time: 15:01:39
(UTC-04:00)
Language:

Explorer 7 - Orbit

View from above orbital plane
View from above orbital plane
View from above satellite
View from above satellite

Ground track
Ground track

The orbit data is extracted from the following two-line orbital elements,

1    22U 59009A   17173.95224746 +.00000191 +00000-0 +38258-4 0  9996
2    22 050.2827 175.2462 0141965 055.1001 306.3194 14.94130565307267
Epoch (UTC): 22 June 2017 22:51:14
Eccentricity: 0.0141965
inclination: 50.2827°
perigee height: 486 km
apogee height: 684 km
right ascension of ascending node: 175.2462°
argument of perigee: 55.1001°
revolutions per day: 14.94130565
mean anomaly at epoch: 306.3194°
orbit number at epoch: 30726

The dashed part of the orbit path shows where the satellite is in the earth's shadow,  

DLR